Regional Weather Roundup
Issued by NWS

Home | Current Version | Previous Version | Text Only | Print | Product List | Glossary Off
Versions: 1 2 3 4 5 6 7 8 9 10 11 12 13 14 15 16 17 18 19 20 21 22 23 24 25 26 27 28 29 30 31 32 33 34 35 36 37 38 39 40 41 42 43 44 45 46 47 48 49 50

000
ASUS43 KBIS 210702
RWRND

NORTH DAKOTA REGIONAL WEATHER ROUNDUP
NATIONAL WEATHER SERVICE BISMARCK ND
200 AM CDT MON AUG 21 2017

NOTE: "FAIR" INDICATES FEW OR NO CLOUDS BELOW 12,000 FEET WITH NO
SIGNIFICANT WEATHER AND/OR OBSTRUCTIONS TO VISIBILITY.


NDZ001>003-009>011-017-210800-
NORTHWEST NORTH DAKOTA

CITY           SKY/WX    TMP DP  RH WIND       PRES   REMARKS
WILLISTON      CLEAR     62  44  51 S7        29.96S
MINOT          CLOUDY    64  50  60 S10       29.96F
MINOT AFB      CLOUDY    61  48  63 S7        29.95F
$$

NDZ018>021-031>035-040>046-210800-
SOUTHWEST NORTH DAKOTA

CITY           SKY/WX    TMP DP  RH WIND       PRES   REMARKS
BISMARCK       PTCLDY    56  52  86 NE5       30.02F
DICKINSON      MOCLDY    61  46  57 VRB7      30.00R
GARRISON         N/A     59  51  75 S8        29.99F
HETTINGER ARPT CLOUDY    55  48  77 SE9       30.00F
$$

NDZ004>008-012>016-024-026-027-054-210800-
NORTHEAST NORTH DAKOTA

CITY           SKY/WX    TMP DP  RH WIND       PRES   REMARKS
GRAND FORKS    CLOUDY    55  52  89 S3        30.01F
GRND FRKS AFB  CLOUDY    52  49  88 SW5       30.01F
DEVILS LAKE    CLOUDY    60  49  66 CALM      30.03F
$$

NDZ022-023-025-028>030-036>039-047>053-210800-
SOUTHEAST NORTH DAKOTA

CITY           SKY/WX    TMP DP  RH WIND       PRES   REMARKS
FARGO          PTCLDY    58  54  86 CALM      30.02F
JAMESTOWN      PTCLDY    61  53  75 CALM      30.03F
$$





USA.gov is the U.S. government's official web portal to all federal, state and local government web resources and services.